Time,TemperatureF,DewpointF,PressureIn,WindDirection,WindDirectionDegrees,WindSpeedMPH,WindSpeedGustMPH,Humidity,HourlyPrecipIn,Conditions,Clouds,dailyrainin,SoftwareType,DateUTC
2013-02-19 00:02:00,52.0,51.0,30.22,South,176,2.0,5.0,96,99.99,,,-99.99,,2013-02-19 05:02:00,
2013-02-19 00:12:00,52.0,51.0,30.22,SE,146,0.0,2.0,96,99.99,,,-99.99,,2013-02-19 05:12:00,
2013-02-19 00:22:00,52.0,51.0,30.22,SE,146,0.0,2.0,96,99.99,,,-99.99,,2013-02-19 05:22:00,
2013-02-19 00:32:00,52.0,51.0,30.22,North,0,0.0,0.0,96,99.99,,,-99.99,,2013-02-19 05:32:00,
2013-02-19 00:43:00,52.0,51.0,30.22,North,0,0.0,0.0,96,99.99,,,-99.99,,2013-02-19 05:43:00,
2013-02-19 00:52:00,51.0,50.0,30.21,SSE,165,0.0,3.0,96,99.99,,,-99.99,,2013-02-19 05:52:00,
2013-02-19 01:02:00,51.0,50.0,30.22,NNW,329,0.0,1.0,96,99.99,,,-99.99,,2013-02-19 06:02:00,
2013-02-19 01:12:00,51.0,50.0,30.22,NNW,329,0.0,1.0,96,99.99,,,-99.99,,2013-02-19 06:12:00,
2013-02-19 01:22:00,49.0,48.0,30.22,North,0,0.0,0.0,97,99.99,,,-99.99,,2013-02-19 06:22:00,
2013-02-19 01:32:00,49.0,48.0,30.22,North,0,0.0,0.0,98,99.99,,,-99.99,,2013-02-19 06:32:00,
2013-02-19 01:42:00,49.0,48.0,30.22,North,0,0.0,0.0,98,99.99,,,-99.99,,2013-02-19 06:42:00,
2013-02-19 01:52:00,49.0,48.0,30.22,North,0,0.0,0.0,98,99.99,,,-99.99,,2013-02-19 06:52:00,
2013-02-19 02:01:00,48.0,48.0,30.22,NNW,333,0.0,1.0,99,99.99,,,-99.99,,2013-02-19 07:01:00,
2013-02-19 02:11:00,48.0,48.0,30.22,NNW,333,0.0,1.0,99,99.99,,,-99.99,,2013-02-19 07:11:00,
2013-02-19 02:22:00,49.0,49.0,30.22,North,0,0.0,0.0,99,99.99,,,-99.99,,2013-02-19 07:22:00,
2013-02-19 02:32:00,48.0,48.0,30.21,North,0,0.0,0.0,100,99.99,,,-99.99,,2013-02-19 07:32:00,
2013-02-19 02:42:00,48.0,48.0,30.21,North,0,0.0,0.0,100,99.99,,,-99.99,,2013-02-19 07:42:00,
2013-02-19 02:52:00,48.0,48.0,30.21,North,0,0.0,0.0,100,99.99,,,-99.99,,2013-02-19 07:52:00,
2013-02-19 03:02:00,48.0,48.0,30.21,North,0,0.0,0.0,100,99.99,,,-99.99,,2013-02-19 08:02:00,
2013-02-19 03:11:00,48.0,48.0,30.21,North,0,0.0,0.0,100,99.99,,,-99.99,,2013-02-19 08:11:00,
2013-02-19 03:21:00,48.0,48.0,30.20,North,0,0.0,0.0,100,99.99,,,-99.99,,2013-02-19 08:21:00,
2013-02-19 03:32:00,48.0,48.0,30.19,North,0,0.0,0.0,100,99.99,,,-99.99,,2013-02-19 08:32:00,
2013-02-19 03:42:00,48.0,48.0,30.19,North,0,0.0,0.0,100,99.99,,,-99.99,,2013-02-19 08:42:00,
2013-02-19 03:52:00,48.0,48.0,30.19,North,0,0.0,0.0,100,99.99,,,-99.99,,2013-02-19 08:52:00,
2013-02-19 04:02:00,49.0,49.0,30.19,North,0,0.0,0.0,100,99.99,,,-99.99,,2013-02-19 09:02:00,
2013-02-19 04:11:00,49.0,49.0,30.19,North,0,0.0,0.0,100,99.99,,,-99.99,,2013-02-19 09:11:00,
2013-02-19 04:22:00,49.0,49.0,30.19,North,0,0.0,0.0,100,99.99,,,-99.99,,2013-02-19 09:22:00,
2013-02-19 04:32:00,49.0,49.0,30.18,North,0,0.0,0.0,100,99.99,,,-99.99,,2013-02-19 09:32:00,
2013-02-19 04:42:00,49.0,49.0,30.18,North,0,0.0,0.0,100,99.99,,,-99.99,,2013-02-19 09:42:00,
2013-02-19 04:53:00,48.0,48.0,30.18,North,0,0.0,0.0,100,99.99,,,-99.99,,2013-02-19 09:53:00,
2013-02-19 05:02:00,48.0,48.0,30.17,North,0,0.0,0.0,100,99.99,,,-99.99,,2013-02-19 10:02:00,
2013-02-19 05:11:00,48.0,48.0,30.17,North,0,0.0,0.0,100,99.99,,,-99.99,,2013-02-19 10:11:00,
2013-02-19 05:22:00,48.0,48.0,30.17,North,0,0.0,0.0,100,99.99,,,-99.99,,2013-02-19 10:22:00,
2013-02-19 05:32:00,48.0,48.0,30.18,NW,305,0.0,2.0,100,99.99,,,-99.99,,2013-02-19 10:32:00,
2013-02-19 05:42:00,48.0,48.0,30.18,NW,305,0.0,2.0,100,99.99,,,-99.99,,2013-02-19 10:42:00,
2013-02-19 05:52:00,48.0,48.0,30.18,North,0,0.0,0.0,100,99.99,,,-99.99,,2013-02-19 10:52:00,
2013-02-19 06:01:00,47.0,47.0,30.18,North,0,0.0,0.0,100,99.99,,,-99.99,,2013-02-19 11:01:00,
2013-02-19 06:11:00,47.0,47.0,30.17,North,0,0.0,0.0,100,99.99,,,-99.99,,2013-02-19 11:11:00,
2013-02-19 06:22:00,47.0,47.0,30.17,North,0,0.0,0.0,100,99.99,,,-99.99,,2013-02-19 11:22:00,
2013-02-19 06:32:00,47.0,47.0,30.17,North,0,0.0,0.0,100,99.99,,,-99.99,,2013-02-19 11:32:00,
2013-02-19 06:42:00,47.0,47.0,30.17,North,0,0.0,0.0,100,99.99,,,-99.99,,2013-02-19 11:42:00,
2013-02-19 06:52:00,46.0,46.0,30.17,North,0,0.0,0.0,100,99.99,,,-99.99,,2013-02-19 11:52:00,
2013-02-19 07:02:00,47.0,47.0,30.18,North,0,0.0,0.0,100,99.99,,,-99.99,,2013-02-19 12:02:00,
2013-02-19 07:12:00,47.0,47.0,30.18,North,0,0.0,0.0,100,99.99,,,-99.99,,2013-02-19 12:12:00,
2013-02-19 07:22:00,46.0,46.0,30.17,North,0,0.0,0.0,100,99.99,,,-99.99,,2013-02-19 12:22:00,
2013-02-19 07:33:00,46.0,-99.9,30.19,North,0,0.0,0.0,0,99.99,,,-99.99,,2013-02-19 12:33:00,
2013-02-19 07:42:00,46.0,-99.9,30.19,North,0,0.0,0.0,0,99.99,,,-99.99,,2013-02-19 12:42:00,
2013-02-19 07:52:00,46.0,46.0,30.18,North,0,0.0,0.0,100,99.99,,,-99.99,,2013-02-19 12:52:00,
2013-02-19 08:02:00,48.0,48.0,30.18,North,0,0.0,0.0,100,99.99,,,-99.99,,2013-02-19 13:02:00,
2013-02-19 08:11:00,48.0,48.0,30.18,North,0,0.0,0.0,100,99.99,,,-99.99,,2013-02-19 13:11:00,
2013-02-19 08:22:00,50.0,50.0,30.18,North,0,0.0,0.0,100,99.99,,,-99.99,,2013-02-19 13:22:00,
2013-02-19 08:32:00,54.0,54.0,30.18,North,0,0.0,0.0,100,99.99,,,-99.99,,2013-02-19 13:32:00,
2013-02-19 08:42:00,54.0,54.0,30.18,North,0,0.0,0.0,100,99.99,,,-99.99,,2013-02-19 13:42:00,
2013-02-19 08:52:00,56.0,56.0,30.19,ENE,72,0.0,0.0,100,99.99,,,-99.99,,2013-02-19 13:52:00,
2013-02-19 09:01:00,59.0,59.0,30.19,South,172,1.0,3.0,100,99.99,,,-99.99,,2013-02-19 14:01:00,
2013-02-19 09:12:00,59.0,59.0,30.19,South,172,1.0,3.0,100,99.99,,,-99.99,,2013-02-19 14:12:00,
2013-02-19 09:22:00,62.0,61.0,30.20,North,0,0.0,0.0,96,99.99,,,-99.99,,2013-02-19 14:22:00,
2013-02-19 09:33:00,64.0,60.0,30.20,SW,219,2.0,5.0,87,99.99,,,-99.99,,2013-02-19 14:33:00,
2013-02-19 09:42:00,64.0,60.0,30.20,SW,219,2.0,5.0,87,99.99,,,-99.99,,2013-02-19 14:42:00,
2013-02-19 09:52:00,66.0,59.0,30.19,South,181,3.0,9.0,78,99.99,,,-99.99,,2013-02-19 14:52:00,
2013-02-19 10:01:00,67.0,56.0,30.19,SSW,195,4.0,7.0,68,99.99,,,-99.99,,2013-02-19 15:01:00,
2013-02-19 10:11:00,67.0,56.0,30.19,SSW,195,4.0,7.0,68,99.99,,,-99.99,,2013-02-19 15:11:00,
2013-02-19 10:21:00,69.0,56.0,30.19,SSE,163,5.0,10.0,63,99.99,,,-99.99,,2013-02-19 15:21:00,
2013-02-19 10:32:00,70.0,55.0,30.20,South,187,5.0,9.0,59,99.99,,,-99.99,,2013-02-19 15:32:00,
2013-02-19 10:42:00,70.0,55.0,30.20,South,187,5.0,9.0,59,99.99,,,-99.99,,2013-02-19 15:42:00,
2013-02-19 10:52:00,71.0,54.0,30.20,South,181,5.0,10.0,54,99.99,,,-99.99,,2013-02-19 15:52:00,
2013-02-19 11:02:00,72.0,55.0,30.20,SW,229,5.0,14.0,55,99.99,,,-99.99,,2013-02-19 16:02:00,
2013-02-19 11:11:00,72.0,55.0,30.20,SW,229,5.0,14.0,55,99.99,,,-99.99,,2013-02-19 16:11:00,
2013-02-19 11:22:00,73.0,54.0,30.19,WSW,250,6.0,11.0,51,99.99,,,-99.99,,2013-02-19 16:22:00,
2013-02-19 11:32:00,74.0,55.0,30.19,WSW,242,5.0,14.0,51,99.99,,,-99.99,,2013-02-19 16:32:00,
2013-02-19 11:42:00,74.0,55.0,30.19,WSW,242,5.0,14.0,51,99.99,,,-99.99,,2013-02-19 16:42:00,
2013-02-19 11:52:00,74.0,55.0,30.19,South,176,8.0,16.0,51,99.99,,,-99.99,,2013-02-19 16:52:00,
2013-02-19 12:01:00,75.0,53.0,30.19,WSW,249,8.0,19.0,47,99.99,,,-99.99,,2013-02-19 17:01:00,
2013-02-19 12:11:00,75.0,53.0,30.19,WSW,249,8.0,19.0,47,99.99,,,-99.99,,2013-02-19 17:11:00,
2013-02-19 12:21:00,76.0,55.0,30.18,WSW,243,5.0,13.0,49,99.99,,,-99.99,,2013-02-19 17:21:00,
2013-02-19 12:32:00,77.0,55.0,30.17,WSW,242,6.0,12.0,46,99.99,,,-99.99,,2013-02-19 17:32:00,
2013-02-19 12:42:00,76.0,54.0,30.16,West,274,7.0,19.0,46,99.99,,,-99.99,,2013-02-19 17:42:00,
2013-02-19 12:52:00,76.0,54.0,30.16,West,274,7.0,19.0,46,99.99,,,-99.99,,2013-02-19 17:52:00,
2013-02-19 13:01:00,77.0,55.0,30.16,West,276,8.0,14.0,46,99.99,,,-99.99,,2013-02-19 18:01:00,
2013-02-19 13:11:00,77.0,55.0,30.16,West,276,8.0,14.0,46,99.99,,,-99.99,,2013-02-19 18:11:00,
2013-02-19 13:21:00,78.0,56.0,30.14,WSW,256,7.0,13.0,46,99.99,,,-99.99,,2013-02-19 18:21:00,
2013-02-19 13:32:00,78.0,55.0,30.13,WNW,291,8.0,13.0,45,99.99,,,-99.99,,2013-02-19 18:32:00,
2013-02-19 13:42:00,78.0,53.0,30.12,WNW,283,10.0,16.0,42,99.99,,,-99.99,,2013-02-19 18:42:00,
2013-02-19 13:52:00,78.0,53.0,30.12,WNW,283,10.0,16.0,42,99.99,,,-99.99,,2013-02-19 18:52:00,
2013-02-19 14:01:00,78.0,54.0,30.12,West,262,8.0,16.0,44,99.99,,,-99.99,,2013-02-19 19:01:00,
2013-02-19 14:11:00,78.0,54.0,30.12,West,262,8.0,16.0,44,99.99,,,-99.99,,2013-02-19 19:11:00,
2013-02-19 14:21:00,79.0,55.0,30.11,WSW,248,8.0,18.0,43,99.99,,,-99.99,,2013-02-19 19:21:00,
2013-02-19 14:32:00,80.0,55.0,30.11,West,276,8.0,18.0,42,99.99,,,-99.99,,2013-02-19 19:32:00,
2013-02-19 14:42:00,80.0,55.0,30.11,West,276,8.0,18.0,42,99.99,,,-99.99,,2013-02-19 19:42:00,
2013-02-19 14:52:00,79.0,55.0,30.10,WSW,256,9.0,17.0,43,99.99,,,-99.99,,2013-02-19 19:52:00,
2013-02-19 15:01:00,80.0,53.0,30.10,SW,236,8.0,15.0,40,99.99,,,-99.99,,2013-02-19 20:01:00,
2013-02-19 15:12:00,80.0,53.0,30.10,SW,236,8.0,15.0,40,99.99,,,-99.99,,2013-02-19 20:12:00,
2013-02-19 15:22:00,80.0,54.0,30.09,West,271,8.0,17.0,41,99.99,,,-99.99,,2013-02-19 20:22:00,
2013-02-19 15:32:00,80.0,53.0,30.09,West,263,8.0,16.0,39,99.99,,,-99.99,,2013-02-19 20:32:00,
2013-02-19 15:42:00,80.0,53.0,30.09,West,263,8.0,16.0,39,99.99,,,-99.99,,2013-02-19 20:42:00,
2013-02-19 15:52:00,78.0,54.0,30.09,WSW,246,6.0,10.0,43,99.99,,,-99.99,,2013-02-19 20:52:00,
2013-02-19 16:02:00,79.0,54.0,30.08,West,270,9.0,16.0,42,99.99,,,-99.99,,2013-02-19 21:02:00,
2013-02-19 16:11:00,79.0,54.0,30.08,West,270,9.0,16.0,42,99.99,,,-99.99,,2013-02-19 21:11:00,
2013-02-19 16:21:00,79.0,55.0,30.08,WNW,291,8.0,14.0,43,99.99,,,-99.99,,2013-02-19 21:21:00,
2013-02-19 16:32:00,78.0,52.0,30.08,West,270,10.0,15.0,41,99.99,,,-99.99,,2013-02-19 21:32:00,
2013-02-19 16:42:00,78.0,52.0,30.08,West,270,10.0,15.0,41,99.99,,,-99.99,,2013-02-19 21:42:00,
2013-02-19 16:52:00,78.0,53.0,30.08,West,271,9.0,15.0,42,99.99,,,-99.99,,2013-02-19 21:52:00,
2013-02-19 17:02:00,77.0,53.0,30.08,WSW,257,10.0,16.0,43,99.99,,,-99.99,,2013-02-19 22:02:00,
2013-02-19 17:11:00,77.0,53.0,30.08,WSW,257,10.0,16.0,43,99.99,,,-99.99,,2013-02-19 22:11:00,
2013-02-19 17:21:00,77.0,54.0,30.08,WNW,283,8.0,12.0,45,99.99,,,-99.99,,2013-02-19 22:21:00,
2013-02-19 17:32:00,76.0,53.0,30.08,WNW,301,7.0,15.0,45,99.99,,,-99.99,,2013-02-19 22:32:00,
2013-02-19 17:42:00,76.0,53.0,30.08,WNW,301,7.0,15.0,45,99.99,,,-99.99,,2013-02-19 22:42:00,
2013-02-19 17:52:00,76.0,54.0,30.09,West,278,7.0,12.0,47,99.99,,,-99.99,,2013-02-19 22:52:00,
2013-02-19 18:01:00,75.0,54.0,30.09,West,273,6.0,11.0,48,99.99,,,-99.99,,2013-02-19 23:01:00,
2013-02-19 18:11:00,75.0,54.0,30.09,West,273,6.0,11.0,48,99.99,,,-99.99,,2013-02-19 23:11:00,
2013-02-19 18:21:00,74.0,54.0,30.09,West,281,6.0,9.0,50,99.99,,,-99.99,,2013-02-19 23:21:00,
2013-02-19 18:32:00,73.0,54.0,30.10,WSW,256,4.0,7.0,51,99.99,,,-99.99,,2013-02-19 23:32:00,
2013-02-19 18:42:00,73.0,54.0,30.10,WSW,256,4.0,7.0,51,99.99,,,-99.99,,2013-02-19 23:42:00,
2013-02-19 18:52:00,72.0,54.0,30.10,NW,309,3.0,5.0,53,99.99,,,-99.99,,2013-02-19 23:52:00,
2013-02-19 19:01:00,71.0,54.0,30.10,WNW,283,2.0,5.0,55,99.99,,,-99.99,,2013-02-20 00:01:00,
2013-02-19 19:11:00,71.0,54.0,30.10,WNW,283,2.0,5.0,55,99.99,,,-99.99,,2013-02-20 00:11:00,
2013-02-19 19:21:00,71.0,55.0,30.10,North,0,0.0,0.0,57,99.99,,,-99.99,,2013-02-20 00:21:00,
2013-02-19 19:32:00,70.0,55.0,30.10,West,281,1.0,3.0,58,99.99,,,-99.99,,2013-02-20 00:32:00,
2013-02-19 19:42:00,70.0,55.0,30.10,West,281,1.0,3.0,58,99.99,,,-99.99,,2013-02-20 00:42:00,
2013-02-19 19:52:00,69.0,55.0,30.10,WNW,291,1.0,2.0,61,99.99,,,-99.99,,2013-02-20 00:52:00,
2013-02-19 20:02:00,68.0,55.0,30.10,West,270,2.0,3.0,63,99.99,,,-99.99,,2013-02-20 01:02:00,
2013-02-19 20:11:00,68.0,55.0,30.10,West,270,2.0,3.0,63,99.99,,,-99.99,,2013-02-20 01:11:00,
2013-02-19 20:21:00,67.0,55.0,30.11,WNW,302,1.0,3.0,66,99.99,,,-99.99,,2013-02-20 01:21:00,
2013-02-19 20:32:00,66.0,55.0,30.11,West,276,1.0,4.0,67,99.99,,,-99.99,,2013-02-20 01:32:00,
2013-02-19 20:42:00,66.0,55.0,30.11,West,276,1.0,4.0,67,99.99,,,-99.99,,2013-02-20 01:42:00,
2013-02-19 20:52:00,66.0,56.0,30.11,WNW,294,1.0,2.0,69,99.99,,,-99.99,,2013-02-20 01:52:00,
2013-02-19 21:02:00,66.0,56.0,30.12,WNW,300,1.0,3.0,70,99.99,,,-99.99,,2013-02-20 02:02:00,
2013-02-19 21:11:00,66.0,56.0,30.12,WNW,300,1.0,3.0,70,99.99,,,-99.99,,2013-02-20 02:11:00,
2013-02-19 21:21:00,65.0,56.0,30.12,West,278,1.0,2.0,73,99.99,,,-99.99,,2013-02-20 02:21:00,
2013-02-19 21:32:00,65.0,57.0,30.12,WNW,285,2.0,4.0,75,99.99,,,-99.99,,2013-02-20 02:32:00,
2013-02-19 21:42:00,65.0,57.0,30.12,WNW,285,2.0,4.0,75,99.99,,,-99.99,,2013-02-20 02:42:00,
2013-02-19 21:52:00,65.0,58.0,30.12,WNW,284,3.0,5.0,77,99.99,,,-99.99,,2013-02-20 02:52:00,
2013-02-19 22:02:00,65.0,59.0,30.11,West,269,3.0,5.0,80,99.99,,,-99.99,,2013-02-20 03:02:00,
2013-02-19 22:12:00,65.0,59.0,30.11,West,269,3.0,5.0,80,99.99,,,-99.99,,2013-02-20 03:12:00,
2013-02-19 22:22:00,65.0,59.0,30.11,WNW,295,2.0,3.0,82,99.99,,,-99.99,,2013-02-20 03:22:00,
2013-02-19 22:32:00,64.0,58.0,30.11,WNW,293,1.0,3.0,82,99.99,,,-99.99,,2013-02-20 03:32:00,
2013-02-19 22:42:00,64.0,58.0,30.11,WNW,293,1.0,3.0,82,99.99,,,-99.99,,2013-02-20 03:42:00,
2013-02-19 22:52:00,60.0,55.0,30.11,North,0,0.0,0.0,85,99.99,,,-99.99,,2013-02-20 03:52:00,
2013-02-19 23:01:00,59.0,56.0,30.11,North,0,0.0,0.0,91,99.99,,,-99.99,,2013-02-20 04:01:00,
2013-02-19 23:11:00,59.0,56.0,30.11,North,0,0.0,0.0,91,99.99,,,-99.99,,2013-02-20 04:11:00,
2013-02-19 23:21:00,58.0,56.0,30.11,North,0,0.0,0.0,94,99.99,,,-99.99,,2013-02-20 04:21:00,
2013-02-19 23:31:00,58.0,57.0,30.10,North,0,0.0,0.0,96,99.99,,,-99.99,,2013-02-20 04:31:00,
2013-02-19 23:42:00,58.0,57.0,30.10,North,0,0.0,0.0,96,99.99,,,-99.99,,2013-02-20 04:42:00,
2013-02-19 23:52:00,58.0,57.0,30.10,North,0,0.0,0.0,97,99.99,,,-99.99,,2013-02-20 04:52:00,